Карточка аэропорта UERP

Внимание!
Информация на этой странице в стадии наполнения.
Если вы не увидели какой-то информации, или заметили неточность - пожалуйста сообщите нам!
Спасибо!
Команда RU-STAFF
Название аэропортаПолярный
Название аэропорта (англ.)Poliarny
Превышение1673 ft. (509.9 m.)
Координаты66°23.85', 112°2.0999999999998'
Высота перехода700m
Эшелон переходаQFE>=714mm:FL050; QFE<714=>687:FL060; QFE<687:FL070
Коды ответчика1000
Зона ОрВДЯкутск РПИ (UEEE)
Данные METARUERP 171300Z 02004G09MPS 9999 BKN022 OVC100 10/07 Q0999 R35/090060 RMK QFE705
Проноз погоды (TAF)UERP 171100Z 1712/1812 36004G09MPS 9999 BKN020CB OVC100 TEMPO 1712/1721 03005G10MPS 4000 -SHRA BKN010 BKN015CB OVC100 TEMPO 1800/1812 35006G11MPS 2500 -SHRA BR BKN010CB OVC100
NOTAMshow/hide NOTAM
AWOS   TABLE

Информация о ВПП

ВПП Длина ВПП (м.) Покрытие Курс ВПП Частота ILS
173100Железобетон173 
353100Железобетон353108.1

Диспетчерские позиции

Позывной Наименование органа УВД Частота
UERP_CTRПолярный-Контроль132.1



Спутниковое изображение